Location: Carlingford
(46.7848°N, 67.7474°W)
Time: 11:54:24
(UTC+00:00)

Envisat - Pass Details

Date: 08 December 2022
Orbit: 763 x 765 km, 98.2° (Epoch: 31 January)

Event Time Altitude Azimuth Distance (km) Brightness Sun altitude
Rises 09:33:06 0° 7° (N) 3,245 6.3 -24.7°
Reaches altitude 10° 09:35:31 10° 1° (N) 2,314 5.4 -24.3°
Enters shadow 09:36:42 17° 355° (N) 1,886 4.9 -24.1°
